Broomfield, CO

3:33 PM MDT on June 24, 2018 (GMT -0600)
Jeffco

Weather History for KBJC - March, 2010

Change the Weather History Date:

Sunday, March 7, 2010

  Actual Average Record
Temperature  
Mean Temperature 38 °F -  
Max Temperature 46 °F 48 °F 67 °F (1986)
Min Temperature 30 °F 27 °F 10 °F (1998)
Degree Days  
Heating Degree Days 27    
Moisture  
Dew Point 32 °F    
Average Humidity 84    
Maximum Humidity 100    
Minimum Humidity 57    
Precipitation  
Precipitation 0.00 in - - ()
Sea Level Pressure  
Sea Level Pressure 29.93 in    
Wind  
Wind Speed 5 mph (NNE)    
Max Wind Speed 9 mph    
Max Gust Speed -    
Visibility 6 miles    
Events Fog    
Averages and records for this station are not official NWS values.
T = Trace of Precipitation, MM = Missing Value Source: NWS Daily Summary

Daily Weather History Graph

Daily Weather History Graph

Search for Another Location

Airport or City:

Astronomy

Mar. 07, 2010 Rise Set
Actual Time 6:24 AM MST 5:58 PM MST
Civil Twilight 5:57 AM MST 6:26 PM MST
Nautical Twilight 5:26 AM MST 6:57 PM MST
Astronomical Twilight 4:54 AM MST 7:28 PM MST
Moon 1:19 AM MST (3/7) 10:29 AM MST (3/7)
Length of Visible Light 12h 28m
Length of Day
11h 34m
Waning Gibbous, 49% of the Moon is Illuminated
Mar 7
Waning Gibbous
Mar 15
New
Mar 23
First Quarter
Mar 29
Full
Apr 6
Last Quarter

Hourly Weather History & Observations

Time (MST) Temp. Windchill Dew Point Humidity Pressure Visibility Wind Dir Wind Speed Gust Speed Precip Events Conditions
12:16 AM 37.4 °F 33.8 °F 32.0 °F 81% 30.07 in 10.0 mi SSE 4.6 mph - N/A   Mostly Cloudy
12:36 AM 37.4 °F 33.8 °F 32.0 °F 81% 30.06 in 10.0 mi SE 4.6 mph - N/A   Overcast
12:56 AM 37.4 °F 33.8 °F 32.0 °F 81% 30.06 in 10.0 mi East 4.6 mph - N/A   Overcast
1:16 AM 35.6 °F 32.8 °F 32.0 °F 87% 30.06 in 10.0 mi ENE 3.5 mph - N/A   Mostly Cloudy
1:36 AM 35.6 °F 31.7 °F 32.0 °F 87% 30.05 in 10.0 mi ENE 4.6 mph - N/A   Scattered Clouds
1:56 AM 35.6 °F 31.7 °F 32.0 °F 87% 30.05 in 10.0 mi ENE 4.6 mph - N/A   Clear
2:16 AM 33.8 °F 29.6 °F 30.2 °F 87% 30.04 in 10.0 mi ENE 4.6 mph - N/A   Clear
2:36 AM 33.8 °F - 32.0 °F 93% 30.03 in 10.0 mi Calm Calm - N/A   Clear
2:56 AM 33.8 °F 28.6 °F 30.2 °F 87% 30.02 in 10.0 mi North 5.8 mph - N/A   Clear
3:36 AM 33.8 °F 28.6 °F 30.2 °F 87% 30.01 in 10.0 mi NNW 5.8 mph - N/A   Clear
3:56 AM 32.0 °F 24.8 °F 30.2 °F 93% 30.00 in 7.0 mi North 8.1 mph - N/A   Clear
4:16 AM 32.0 °F 24.2 °F 30.2 °F 93% 30.00 in 7.0 mi North 9.2 mph - N/A   Clear
4:36 AM 32.0 °F 24.8 °F 32.0 °F 100% 30.00 in 5.0 mi North 8.1 mph - N/A   Clear
4:56 AM 32.0 °F 26.4 °F 32.0 °F 100% 30.00 in 4.0 mi North 5.8 mph - N/A   Clear
5:16 AM 32.0 °F 27.5 °F 32.0 °F 100% 30.00 in 4.0 mi NW 4.6 mph - N/A   Mostly Cloudy
5:36 AM 32.0 °F 24.8 °F 30.2 °F 93% 30.00 in 0.2 mi NNW 8.1 mph - N/A   Overcast
5:55 AM 30.2 °F 22.6 °F 30.2 °F 100% 29.99 in 0.1 mi NW 8.1 mph - N/A Fog Fog
5:56 AM 32.0 °F 24.2 °F 30.2 °F 93% 29.99 in 0.2 mi NW 9.2 mph - N/A   Overcast
6:49 AM 30.2 °F 22.6 °F 30.2 °F 100% 29.99 in 0.1 mi North 8.1 mph - N/A Fog Fog
7:53 AM 32.0 °F 27.5 °F 32.0 °F 100% 29.99 in 0.1 mi North 4.6 mph - N/A Fog Fog
8:49 AM 32.0 °F - 32.0 °F 100% 29.99 in 0.4 mi Calm Calm - N/A Fog Fog
9:25 AM 32.0 °F - 32.0 °F 100% 29.97 in 1.0 mi Calm Calm - N/A   Mist
9:55 AM 33.8 °F - 33.8 °F 100% 29.97 in 1.0 mi Calm Calm - N/A   Mist
10:22 AM 33.8 °F 30.8 °F 32.0 °F 93% 29.96 in 3.0 mi ENE 3.5 mph - N/A   Mist
10:50 AM 35.6 °F - 32.0 °F 87% 29.95 in 3.0 mi Calm Calm - N/A   Mist
11:30 AM 39.2 °F 35.9 °F 32.0 °F 75% 29.93 in 5.0 mi East 4.6 mph - N/A   Haze
11:50 AM 41.0 °F 38.0 °F 32.0 °F 70% 29.92 in 5.0 mi NE 4.6 mph - N/A   Haze
12:25 PM 41.0 °F 37.1 °F 32.0 °F 70% 29.90 in 5.0 mi ENE 5.8 mph - N/A   Haze
12:48 PM 42.8 °F 39.3 °F 32.0 °F 66% 29.88 in 7.0 mi ENE 5.8 mph - N/A   Scattered Clouds
1:48 PM 44.6 °F 40.7 °F 32.0 °F 61% 29.85 in 7.0 mi North 6.9 mph - N/A   Scattered Clouds
2:51 PM 46.4 °F 44.3 °F 32.0 °F 57% 29.83 in 7.0 mi NNE 4.6 mph - N/A   Scattered Clouds
3:57 PM 46.4 °F 43.5 °F 32.0 °F 57% 29.80 in 7.0 mi NNE 5.8 mph - N/A   Scattered Clouds
4:49 PM 46.4 °F - 32.0 °F 57% 29.79 in 7.0 mi Calm Calm - N/A   Scattered Clouds
5:52 PM 42.8 °F 40.1 °F 32.0 °F 66% 29.79 in 7.0 mi North 4.6 mph - N/A   Scattered Clouds
6:47 PM 41.0 °F 38.0 °F 32.0 °F 70% 29.79 in 7.0 mi North 4.6 mph - N/A   Scattered Clouds
7:52 PM 39.2 °F 35.9 °F 32.0 °F 75% 29.79 in 8.0 mi NW 4.6 mph - N/A   Scattered Clouds
8:47 PM 37.4 °F - 30.2 °F 75% 29.80 in 8.0 mi Calm Calm - N/A   Scattered Clouds
9:50 PM 37.4 °F 34.9 °F 32.0 °F 81% 29.80 in 8.0 mi NNW 3.5 mph - N/A   Scattered Clouds
10:16 PM 41.0 °F 39.0 °F 32.0 °F 70% 29.79 in 10.0 mi East 3.5 mph - N/A   Clear
10:36 PM 37.4 °F - 32.0 °F 81% 29.79 in 7.0 mi Calm Calm - N/A   Clear
10:56 PM 37.4 °F - 32.0 °F 81% 29.79 in 7.0 mi Calm Calm - N/A   Clear
11:16 PM 35.6 °F 31.7 °F 32.0 °F 87% 29.78 in 7.0 mi West 4.6 mph - N/A   Mostly Cloudy
11:36 PM 35.6 °F 30.7 °F 32.0 °F 87% 29.77 in 5.0 mi WNW 5.8 mph - N/A   Haze
11:56 PM 37.4 °F 34.9 °F 32.0 °F 81% 29.76 in 7.0 mi West 3.5 mph - N/A   Overcast